Location: Glenbow
(51.1592°N, 114.3828°W)
Time: 13:12:53
(UTC+00:00)

Envisat - Pass Details

Date: 09 December 2021
Orbit: 764 x 766 km, 98.2° (Epoch: 28 January)

Event Time Altitude Azimuth Distance (km) Brightness Sun altitude
Rises 00:21:47 0° 189° (S) 3,221 6.8 -7.6°
Reaches altitude 10° 00:24:15 10° 198° (SSW) 2,300 6.2 -8.0°
Maximum altitude 00:28:54 36° 264° (W) 1,213 4.8 -8.6°
Drops below altitude 10° 00:33:35 10° 331° (NNW) 2,316 5.6 -9.3°
Sets 00:36:05 0° 340° (NNW) 3,247 6.2 -9.7°
